#timestamp,LO_Frequency,Hit,StdDev 
1614448815.2,286047006.1,N
1614448835.1,286047008.8,Y
1614448836.0,286047008.8,P
1614448855.8,286047003.7,N
1614448875.7,286047001.2,N
1614448895.5,286047003.7,N
1614448915.3,286047008.8,Y
1614448935.2,286047005.0,P
1614448955.0,286047008.8,P
1614448955.9,286047008.8,P
1614448975.7,286047003.4,N
1614448995.6,286047001.4,N
1614449015.4,286047005.7,N
1614449035.3,286047000.0,N
1614449055.1,286047000.4,N
1614449056.0,286047000.4,N
1614449075.8,286046998.5,N
1614449095.7,286046999.5,N
1614449115.5,286046999.8,N
1614449135.3,286046995.0,N
1614449155.2,286046994.1,N
1614449175.0,286046996.2,N
1614449175.9,286046996.2,N
1614449195.8,286046992.1,N
1614449215.6,286046995.4,N
1614449235.4,286046997.2,N
1614449255.3,286046997.1,N
1614449275.1,286046992.5,N
1614449295.9,286046987.0,N
1614449315.7,286046985.7,N
1614449335.5,286046987.0,N
1614449355.4,286046989.3,N
1614449375.2,286046992.7,N
1614449395.0,286046989.1,N
1614449395.9,286046989.1,N
1614449415.8,286046990.6,N
1614449435.6,286046986.3,N
1614449455.5,286046990.1,N
1614449475.3,286046990.5,N
1614449495.1,286046987.5,N
1614449515.9,286046989.4,N
1614449535.7,286046988.2,N
1614449555.6,286046984.9,N
1614449575.4,286046988.3,N
1614449595.2,286046985.0,Y
1614449615.1,286046997.4,P
1614449616.0,286046997.4,N
1614449635.8,286047003.5,N
1614449655.6,286047000.7,N
1614449675.5,286046999.3,N
1614449695.3,286046995.0,N
1614449715.2,286047000.1,N
1614449735.9,286047002.8,N
1614449755.7,286047000.0,N
1614449775.6,286047004.3,N
1614449795.4,286047001.1,N
1614449815.2,286047001.1,N
1614449835.1,286046995.7,N
1614449836.0,286046995.7,N
1614449855.8,286047001.1,N
1614449875.7,286046998.4,N
1614449895.5,286046996.9,N
1614449915.3,286047003.5,N
1614449935.2,286047005.7,N
1614449955.9,286047004.7,N
1614449975.7,286047005.6,N
1614449995.6,286047005.7,N
1614450015.4,286047006.1,N
1614450035.2,286047002.9,N
1614450055.1,286047002.7,N
1614450056.0,286047002.7,N
1614450075.8,286046997.7,N
1614450095.7,286046994.9,N
1614450115.5,286046996.6,N
1614450135.3,286047001.2,N
1614450155.2,286047003.9,N
1614450175.0,286047004.0,N
1614450175.9,286047004.0,N
1614450195.8,286047002.7,N
1614450215.6,286046999.0,N
1614450235.4,286046995.4,N
1614450255.3,286046996.3,N
1614450275.1,286046994.8,N
1614450295.8,286046991.9,N
1614450315.7,286046994.9,N
1614450335.5,286046997.4,N
1614450355.4,286046994.7,N
1614450375.2,286046992.7,N
1614450395.0,286046992.2,N
1614450395.9,286046992.2,N
1614450415.8,286046992.1,N
1614450435.6,286046991.4,N
1614450455.4,286046993.2,N
1614450475.3,286046991.4,N
1614450495.1,286046992.9,N
1614450515.9,286046996.1,N
1614450535.7,286046997.3,N
1614450555.5,286046994.9,N
1614450575.4,286046997.8,N
1614450595.2,286046998.7,N
1614450615.1,286046999.9,N
1614450616.0,286046999.9,N
1614450635.8,286047007.1,N
1614450655.6,286047009.0,N
1614450675.5,286047009.1,N
1614450695.3,286047005.5,N
1614450715.1,286047005.2,N
1614450735.9,286047002.9,N
1614450755.7,286047008.9,N
1614450775.6,286047008.1,N
1614450795.4,286047008.7,N
1614450815.2,286047003.6,N
1614450835.1,286047002.8,N
1614450836.0,286047002.8,N
1614450855.8,286046999.9,N
1614450875.6,286047001.1,N
1614450895.5,286046995.7,N
1614450915.3,286046991.7,N
1614450935.2,286046992.2,N
1614450955.9,286046994.3,N
1614450975.7,286046995.7,N
1614450995.6,286046995.5,N
1614451015.4,286046999.3,N
1614451035.2,286046997.1,N
1614451055.1,286047002.3,N
1614451056.0,286047002.3,N
1614451075.8,286047001.4,N
1614451095.7,286046999.8,N
1614451115.5,286047001.0,N
1614451135.3,286047002.4,N
1614451155.2,286047000.8,N
1614451175.0,286046998.6,N
1614451175.9,286046998.6,N
1614451195.8,286046997.2,N
1614451215.6,286046995.6,N
1614451235.4,286046996.5,N
1614451255.3,286046997.0,N
1614451275.1,286047000.8,N
1614451295.8,286047004.1,N
1614451315.7,286047006.9,N
1614451335.5,286047006.1,N
1614451355.4,286047009.9,N
1614451375.2,286047007.7,N
1614451395.0,286047010.6,N
1614451395.9,286047010.6,N
1614451415.8,286047010.7,N
1614451435.6,286047013.9,N
1614451455.5,286047013.9,N
1614451475.3,286047011.1,N
1614451495.1,286047016.7,N
1614451515.9,286047015.5,N
1614451535.7,286047012.8,N
1614451555.5,286047013.6,N
1614451575.4,286047010.5,N
1614451595.2,286047008.0,N
1614451615.1,286047005.7,N
1614451616.0,286047005.7,N
1614451635.8,286047010.9,N
1614451655.6,286047019.1,Y
1614451675.5,286047010.0,P
1614451695.3,286047010.2,P
1614451715.2,286047016.2,P
1614451735.9,286047009.7,N
1614451755.7,286047005.0,N
1614451775.6,286047007.3,N
1614451795.4,286047004.0,N
1614451815.2,286047006.3,N
1614451835.1,286047008.2,N
1614451836.0,286047008.2,N
1614451855.8,286047005.8,N
1614451875.7,286047008.4,N
1614451895.5,286047006.6,N
1614451915.3,286047005.6,N
1614451935.2,286047004.6,N
1614451955.0,286047006.7,N
1614451955.9,286047006.7,N
1614451975.7,286047004.9,N
1614451995.6,286047005.6,N
1614452015.4,286047004.3,N
1614452035.3,286047004.8,N
1614452055.1,286046999.9,N
1614452075.8,286047000.3,N
1614452095.7,286046999.7,N
1614452115.5,286046998.8,N
1614452135.4,286046998.0,N
1614452155.2,286046995.3,N
1614452175.0,286047002.7,N
1614452175.9,286047002.7,N
1614452195.8,286046999.6,N
1614452215.7,286047002.8,N
1614452235.5,286047010.6,N
1614452255.3,286047004.2,N
1614452275.2,286046999.6,N
1614452295.0,286046997.8,N
1614452295.9,286046997.8,N
1614452315.8,286046997.8,N
1614452335.6,286046998.0,N
1614452355.4,286047002.8,N
1614452375.3,286047007.1,N
1614452395.1,286047005.1,N
